COSMOS 894 DEB

Satellite information

Favourite Embed

Satellite Type and Status

DEBRISIN ORBIT

Key statistics

Satellite COSMOS 894 DEB at a glance.

Uptime

17612

Days in orbit

Revolutions

≈ 13.8

Per day

Orbit

LEO

Low Earth Orbit

Inclination

82.9

Latest

Satellite identification and parameters

Extended collection of information and parameters for COSMOS 894 DEB.

Object identification

Identified? True

Debris? True

Object name: COSMOS 894 DEB

International designator: 1977-013C

Object number (NORAD): 45506

Object ID (CCSDS): 45506

Country: COMMONWEALTH OF INDEPENDENT STATES (CIS)

Current information (Y/N): Y

RCS size: SMALL

Orbital parameters

Period: 104.433 minutes

Inclination: 82.945 deg

SMA: 7346.018 km

Apoapsis: 987.14 km

Periapsis: 948.626 km

RAAN: 23.8104 deg

Eccentricy: 0.0026214

Argument of periapsis: 210.1837 deg

Mean anomaly: 149.7812 deg

Mean motion: 13.78874593 rev/day

Mean motion (dot): 0.00000826 rev/day2

B* drag term: 0.00079406 1/REarth

Two-line elements (TLE)

Creation date: May 12, 2025, 2:31 a.m.

Reference frame: TEME

Reference center: EARTH

Epoch: May 11, 2025, 4:43 p.m. UTC

TLE line 0: 0 COSMOS 894 DEB

TLE line 1: 1 45506U 77013C 25131.69688709 .00000826 00000-0 79406-3 0 9998

TLE line 2: 2 45506 82.9450 23.8104 0026214 210.1837 149.7812 13.78874593557661

Live tracking on map

Real-time ground track for satellite COSMOS 894 DEB.

In-orbit conjunctions

A list of the most updated potential collisions computed for object COSMOS 894 DEB.

Target Orbit TCA Probability of collision Miss distance Type
FENGYUN 1C DEB SSO 2025-03-08 04:39:30 0.0001351425 60.0 (m) DEBRIS
COSMOS 1304 LEO 2025-01-30 18:25:18 0.000405684 542.0 (m) PAYLOAD
SL-8 R/B LEO 2024-10-19 09:37:58 0.0001169595 217.0 (m) ROCKET BODY

Associated space launch

Navigation satellite providing location information for the Tsiklon-B navigation system

COSMOS 894 DEB was lifted into orbit during the mission ‘Kosmos-3M | Parus 8’, on board a Kosmos-3M space rocket.

The launch took place on Feb. 21, 1977, 5:20 p.m. from 132/1 (132L).

For more information about the launch, click the button.

Launch to space Kosmos-3M | Parus 8
Kosmos-3M | Parus 8

Agency: N/A

Status: Launch Successful

Launch date: Feb. 21, 1977, 5:20 p.m. UTC

Rocket: Kosmos-3M

Launch pad: 132/1 (132L)

Location: Plesetsk Cosmodrome, Russian Federation

...

Latest news about this satellite

There are no fresh news available about this satellite. Check back as we update our databases every day.


Newsletter sign-up

Weekly statistics, charts and insights to help you stay on top of the space industry.